Current weather by "City, St" or "zip code"  
 

Current Conditions: Kimball, Kimball Municipal Airport/Robert E Arraj Field, NE

Fair


50.0 F

Last Updated on Oct 31 2020, 2:55 am MDT
Humidity: 41%
Wind Speed: W 17.3 mph
Barometer 29.89 in
Dewpoint: 27.0 F
Visibility: 10.00 mi
Precip: --
Heat Index: NA
Wind Chill: 44 F
Current conditions at:

Kimball, Kimball Municipal Airport/Robert E Arraj Field, NE (KIBM)

Lat: 41.18333 Lon: 103.66667

Local Radar Image active severe weather and emergency alerts image image weather storm and storm spotter reports image weather observation monitoring service image
Local
Radar
Active
Alerts
Storm Reports Obs
Monitoring

Sign-up For Email & Text Message Weather Alert Notification Services



Advertise Here

Observation History for Kimball, Kimball Municipal Airport/Robert E Arraj Field, NE


Time Wind
(mph)
Vis
(mi)
Weather Precip (in) Temperature (F) Relative
Humidity
Wind
Chill
(F)
Heat
Index
(F)
Pressure
Air Dwpt altimeter
(in)
sea level
(mb)
Rmks
2:55 am MDT W 17.3 10.00 Fair -- 50.0 27.0 41% 44 NA 29.89 M
1:55 am MDT SW 12.7 10.00 Fair -- 42.0 29.8 61% 35 NA 29.89 M
12:55 am MDT W 15.0 10.00 Fair -- 42.0 31.1 66% 34 NA 29.90 M
11:55 pm MDT W 9.2 10.00 Fair -- 35.0 30.0 82% 28 NA 29.91 M
10:55 pm MDT W 3.5 10.00 Fair -- 38.0 31.5 79% NA NA 29.93 M
9:55 pm MDT SW 8.1 10.00 Fair -- 38.0 32.0 79% 32 NA 29.94 M
8:55 pm MDT SW 5.8 10.00 Fair -- 39.0 32.0 75% 35 NA 29.94 M
7:55 pm MDT W 8.1 10.00 Fair -- 40.0 32.2 73% 35 NA 29.96 M
6:55 pm MDT SW 5.8 10.00 Fair -- 45.0 33.4 64% 42 NA 29.97 M
6:35 pm MDT SW 6.9 10.00 Fair -- 47.0 32.9 59% 44 NA 29.97 M
5:55 pm MDT SW 4.6 10.00 Fair -- 52.0 33.4 49% 51 NA 29.98 M
4:55 pm MDT SW 9.2 10.00 Fair -- 64.0 31.8 31% NA NA 30.00 M
3:55 pm MDT SW 16.1 G 25.3 10.00 Fair -- 66.0 29.8 26% NA NA 30.01 M
2:55 pm MDT S 18.4 G 24.2 10.00 Fair -- 66.0 27.3 23% NA NA 30.04 M
1:55 pm MDT S 18.4 G 23.0 10.00 Fair -- 65.0 29.1 26% NA NA 30.08 M
12:55 pm MDT SW 17.3 G 23.0 10.00 Fair -- 64.0 30.9 29% NA NA 30.12 M
12:35 pm MDT SW 19.6 10.00 Fair -- 64.0 30.2 29% NA NA 30.13 M
11:55 am MDT SW 16.1 G 19.6 10.00 Fair -- 63.0 30.6 29% 61 NA 30.15 M
10:55 am MDT SW 3.5 10.00 Fair -- 58.0 33.1 39% NA NA 30.18 M
9:55 am MDT SW 4.6 10.00 Fair -- 50.0 32.2 50% 48 NA 30.21 M
9:35 am MDT SW 3.5 10.00 Fair -- 48.0 31.3 52% NA NA 30.22 M
8:55 am MDT S 4.6 10.00 Fair -- 41.0 31.8 69% 38 NA 30.22 M
7:55 am MDT W 5.8 10.00 Fair -- 36.0 28.2 75% 31 NA 30.20 M
6:55 am MDT W 5.8 10.00 Fair -- 35.0 27.7 74% 30 NA 30.20 M

Regional Weather Observation


Scottsbluff, Heilig Field, NE (KBFF)

Fair
40.0 F

Cheyenne, Cheyenne Airport, WY (KCYS)

Fair
47.0 F

Sidney, Sidney Municipal Airport, NE (KSNY)

Fair
36.0 F

Sterling Municipal Airport, CO (KSTK)

Fair
32.0 F

Fort Morgan Municipal Airport, CO (KFMM)

Fair
36.0 F

Greeley, Greeley-Weld County Airport, CO (KGXY)

Fair
29.0 F